owner,sensor,date,latitude,longitude,vertical_datum,sea_water_temperature,qcFlag 
SCCF RECON,ioos:station:SCCF:12:1,2008-01-01T05:00:00Z,26.4966,-82.1479,2.5,23.72,2 
SCCF RECON,ioos:station:SCCF:12:1,2008-01-01T06:00:00Z,26.4966,-82.1479,2.5,23.67,2 
SCCF RECON,ioos:station:SCCF:12:1,2008-01-01T07:00:00Z,26.4966,-82.1479,2.5,23.65,2 
SCCF RECON,ioos:station:SCCF:12:1,2008-01-01T09:00:00Z,26.4966,-82.1479,2.5,23.57,2 
SCCF RECON,ioos:station:SCCF:12:1,2008-01-01T10:00:00Z,26.4966,-82.1479,2.5,23.56,2 
SCCF RECON,ioos:station:SCCF:12:1,2008-01-01T12:00:00Z,26.4966,-82.1479,2.5,23.48,2 
SCCF RECON,ioos:station:SCCF:12:1,2008-01-01T13:00:00Z,26.4966,-82.1479,2.5,23.48,2 
SCCF RECON,ioos:station:SCCF:12:1,2008-01-01T14:00:00Z,26.4966,-82.1479,2.5,23.49,2 
SCCF RECON,ioos:station:SCCF:12:1,2008-01-01T15:00:00Z,26.4966,-82.1479,2.5,23.5,2 
SCCF RECON,ioos:station:SCCF:12:1,2008-01-01T16:00:00Z,26.4966,-82.1479,2.5,23.46,2 
SCCF RECON,ioos:station:SCCF:12:1,2008-01-01T17:00:00Z,26.4966,-82.1479,2.5,23.43,2 
SCCF RECON,ioos:station:SCCF:12:1,2008-01-01T18:00:00Z,26.4966,-82.1479,2.5,23.42,2 
SCCF RECON,ioos:station:SCCF:12:1,2008-01-01T19:00:00Z,26.4966,-82.1479,2.5,23.45,2 
SCCF RECON,ioos:station:SCCF:12:1,2008-01-01T20:00:00Z,26.4966,-82.1479,2.5,23.45,2 
SCCF RECON,ioos:station:SCCF:12:1,2008-01-01T21:00:00Z,26.4966,-82.1479,2.5,23.41,2 
SCCF RECON,ioos:station:SCCF:12:1,2008-01-01T23:00:00Z,26.4966,-82.1479,2.5,23.17,2 
SCCF RECON,ioos:station:SCCF:12:1,2008-01-02T00:00:00Z,26.4966,-82.1479,2.5,22.97,2 
SCCF RECON,ioos:station:SCCF:12:1,2008-01-02T01:00:00Z,26.4966,-82.1479,2.5,22.77,2 
SCCF RECON,ioos:station:SCCF:12:1,2008-01-02T02:00:00Z,26.4966,-82.1479,2.5,22.6,2 
SCCF RECON,ioos:station:SCCF:12:1,2008-01-02T03:00:00Z,26.4966,-82.1479,2.5,22.43,2 
SCCF RECON,ioos:station:SCCF:12:1,2008-01-02T04:00:00Z,26.4966,-82.1479,2.5,22.25,2 
SCCF RECON,ioos:station:SCCF:12:1,2008-01-02T05:00:00Z,26.4966,-82.1479,2.5,22.07,2 
SCCF RECON,ioos:station:SCCF:12:1,2008-01-02T06:00:00Z,26.4966,-82.1479,2.5,21.75,2 
SCCF RECON,ioos:station:SCCF:12:1,2008-01-02T07:00:00Z,26.4966,-82.1479,2.5,21.36,2 
SCCF RECON,ioos:station:SCCF:12:1,2008-01-02T08:00:00Z,26.4966,-82.1479,2.5,20.88,2 
SCCF RECON,ioos:station:SCCF:12:1,2008-01-02T09:00:00Z,26.4966,-82.1479,2.5,20.36,2 
SCCF RECON,ioos:station:SCCF:12:1,2008-01-02T10:00:00Z,26.4966,-82.1479,2.5,20.07,2 
SCCF RECON,ioos:station:SCCF:12:1,2008-01-02T11:00:00Z,26.4966,-82.1479,2.5,19.73,2 
SCCF RECON,ioos:station:SCCF:12:1,2008-01-02T12:00:00Z,26.4966,-82.1479,2.5,19.47,2 
SCCF RECON,ioos:station:SCCF:12:1,2008-01-02T13:00:00Z,26.4966,-82.1479,2.5,19.09,2 
SCCF RECON,ioos:station:SCCF:12:1,2008-01-02T14:00:00Z,26.4966,-82.1479,2.5,18.9,2 
SCCF RECON,ioos:station:SCCF:12:1,2008-01-02T15:00:00Z,26.4966,-82.1479,2.5,18.78,2 
SCCF RECON,ioos:station:SCCF:12:1,2008-01-02T16:00:00Z,26.4966,-82.1479,2.5,18.59,2 
SCCF RECON,ioos:station:SCCF:12:1,2008-01-02T17:00:00Z,26.4966,-82.1479,2.5,18.24,2 
SCCF RECON,ioos:station:SCCF:12:1,2008-01-02T18:00:00Z,26.4966,-82.1479,2.5,18.51,2 
SCCF RECON,ioos:station:SCCF:12:1,2008-01-02T19:00:00Z,26.4966,-82.1479,2.5,18.35,2 
SCCF RECON,ioos:station:SCCF:12:1,2008-01-02T21:00:00Z,26.4966,-82.1479,2.5,17.82,2 
SCCF RECON,ioos:station:SCCF:12:1,2008-01-02T22:00:00Z,26.4966,-82.1479,2.5,17.39,2 
SCCF RECON,ioos:station:SCCF:12:1,2008-01-02T23:00:00Z,26.4966,-82.1479,2.5,16.99,2 
SCCF RECON,ioos:station:SCCF:12:1,2008-01-03T00:00:00Z,26.4966,-82.1479,2.5,16.51,2 
SCCF RECON,ioos:station:SCCF:12:1,2008-01-03T01:00:00Z,26.4966,-82.1479,2.5,16.07,2 
SCCF RECON,ioos:station:SCCF:12:1,2008-01-03T02:00:00Z,26.4966,-82.1479,2.5,15.43,2 
SCCF RECON,ioos:station:SCCF:12:1,2008-01-03T03:00:00Z,26.4966,-82.1479,2.5,16.09,2 
SCCF RECON,ioos:station:SCCF:12:1,2008-01-03T04:00:00Z,26.4966,-82.1479,2.5,16.12,2 
SCCF RECON,ioos:station:SCCF:12:1,2008-01-03T05:00:00Z,26.4966,-82.1479,2.5,15.64,2 
SCCF RECON,ioos:station:SCCF:12:1,2008-01-03T06:00:00Z,26.4966,-82.1479,2.5,14.85,2 
SCCF RECON,ioos:station:SCCF:12:1,2008-01-03T07:00:00Z,26.4966,-82.1479,2.5,14.39,2 
SCCF RECON,ioos:station:SCCF:12:1,2008-01-03T08:00:00Z,26.4966,-82.1479,2.5,14.78,2 
SCCF RECON,ioos:station:SCCF:12:1,2008-01-03T09:00:00Z,26.4966,-82.1479,2.5,14.01,2 
SCCF RECON,ioos:station:SCCF:12:1,2008-01-03T10:00:00Z,26.4966,-82.1479,2.5,14.4,2 
SCCF RECON,ioos:station:SCCF:12:1,2008-01-03T11:00:00Z,26.4966,-82.1479,2.5,14.29,2 
SCCF RECON,ioos:station:SCCF:12:1,2008-01-03T12:00:00Z,26.4966,-82.1479,2.5,13.31,2 
SCCF RECON,ioos:station:SCCF:12:1,2008-01-03T13:00:00Z,26.4966,-82.1479,2.5,12.92,2 
SCCF RECON,ioos:station:SCCF:12:1,2008-01-03T14:00:00Z,26.4966,-82.1479,2.5,12.94,2 
SCCF RECON,ioos:station:SCCF:12:1,2008-01-03T15:00:00Z,26.4966,-82.1479,2.5,13.11,2 
SCCF RECON,ioos:station:SCCF:12:1,2008-01-03T16:00:00Z,26.4966,-82.1479,2.5,13.18,2 
SCCF RECON,ioos:station:SCCF:12:1,2008-01-03T17:00:00Z,26.4966,-82.1479,2.5,13.25,2 
SCCF RECON,ioos:station:SCCF:12:1,2008-01-03T18:00:00Z,26.4966,-82.1479,2.5,13.49,2 
SCCF RECON,ioos:station:SCCF:12:1,2008-01-03T19:00:00Z,26.4966,-82.1479,2.5,13.5,2 
SCCF RECON,ioos:station:SCCF:12:1,2008-01-03T20:00:00Z,26.4966,-82.1479,2.5,13.64,2 
SCCF RECON,ioos:station:SCCF:12:1,2008-01-03T21:00:00Z,26.4966,-82.1479,2.5,13.51,2 
SCCF RECON,ioos:station:SCCF:12:1,2008-01-03T22:00:00Z,26.4966,-82.1479,2.5,13.42,2 
SCCF RECON,ioos:station:SCCF:12:1,2008-01-03T23:00:00Z,26.4966,-82.1479,2.5,13.24,2 
SCCF RECON,ioos:station:SCCF:12:1,2008-01-04T00:00:00Z,26.4966,-82.1479,2.5,12.99,2 
SCCF RECON,ioos:station:SCCF:12:1,2008-01-04T01:00:00Z,26.4966,-82.1479,2.5,12.63,2 
SCCF RECON,ioos:station:SCCF:12:1,2008-01-04T02:00:00Z,26.4966,-82.1479,2.5,12.84,2 
SCCF RECON,ioos:station:SCCF:12:1,2008-01-04T03:00:00Z,26.4966,-82.1479,2.5,13.14,2 
SCCF RECON,ioos:station:SCCF:12:1,2008-01-04T04:00:00Z,26.4966,-82.1479,2.5,13.24,2 
SCCF RECON,ioos:station:SCCF:12:1,2008-01-04T05:00:00Z,26.4966,-82.1479,2.5,13.36,2 
SCCF RECON,ioos:station:SCCF:12:1,2008-01-04T06:00:00Z,26.4966,-82.1479,2.5,13.11,2 
SCCF RECON,ioos:station:SCCF:12:1,2008-01-04T07:00:00Z,26.4966,-82.1479,2.5,12.63,2 
SCCF RECON,ioos:station:SCCF:12:1,2008-01-04T08:00:00Z,26.4966,-82.1479,2.5,12.04,2 
SCCF RECON,ioos:station:SCCF:12:1,2008-01-04T09:00:00Z,26.4966,-82.1479,2.5,11.95,2 
SCCF RECON,ioos:station:SCCF:12:1,2008-01-04T10:00:00Z,26.4966,-82.1479,2.5,12.14,2 
SCCF RECON,ioos:station:SCCF:12:1,2008-01-04T11:00:00Z,26.4966,-82.1479,2.5,11.99,2 
SCCF RECON,ioos:station:SCCF:12:1,2008-01-04T12:00:00Z,26.4966,-82.1479,2.5,12.26,2 
SCCF RECON,ioos:station:SCCF:12:1,2008-01-04T13:00:00Z,26.4966,-82.1479,2.5,12.29,2 
SCCF RECON,ioos:station:SCCF:12:1,2008-01-04T14:00:00Z,26.4966,-82.1479,2.5,12.1,2 
SCCF RECON,ioos:station:SCCF:12:1,2008-01-04T15:00:00Z,26.4966,-82.1479,2.5,11.9,2 
SCCF RECON,ioos:station:SCCF:12:1,2008-01-04T16:00:00Z,26.4966,-82.1479,2.5,12.31,2 
SCCF RECON,ioos:station:SCCF:12:1,2008-01-04T17:00:00Z,26.4966,-82.1479,2.5,12.3,2 
SCCF RECON,ioos:station:SCCF:12:1,2008-01-04T18:00:00Z,26.4966,-82.1479,2.5,12.61,2 
SCCF RECON,ioos:station:SCCF:12:1,2008-01-04T19:00:00Z,26.4966,-82.1479,2.5,12.83,2 
SCCF RECON,ioos:station:SCCF:12:1,2008-01-04T20:00:00Z,26.4966,-82.1479,2.5,12.93,2 
SCCF RECON,ioos:station:SCCF:12:1,2008-01-04T21:00:00Z,26.4966,-82.1479,2.5,12.97,2 
SCCF RECON,ioos:station:SCCF:12:1,2008-01-04T22:00:00Z,26.4966,-82.1479,2.5,13.05,2 
SCCF RECON,ioos:station:SCCF:12:1,2008-01-04T23:00:00Z,26.4966,-82.1479,2.5,13.15,2 
SCCF RECON,ioos:station:SCCF:12:1,2008-01-05T00:00:00Z,26.4966,-82.1479,2.5,13.12,2 
SCCF RECON,ioos:station:SCCF:12:1,2008-01-05T01:00:00Z,26.4966,-82.1479,2.5,13.1,2 
SCCF RECON,ioos:station:SCCF:12:1,2008-01-05T02:00:00Z,26.4966,-82.1479,2.5,13.07,2 
SCCF RECON,ioos:station:SCCF:12:1,2008-01-05T03:00:00Z,26.4966,-82.1479,2.5,13.03,2 
SCCF RECON,ioos:station:SCCF:12:1,2008-01-05T04:00:00Z,26.4966,-82.1479,2.5,13.03,2 
SCCF RECON,ioos:station:SCCF:12:1,2008-01-05T05:00:00Z,26.4966,-82.1479,2.5,13.0,2 
SCCF RECON,ioos:station:SCCF:12:1,2008-01-05T06:00:00Z,26.4966,-82.1479,2.5,13.02,2 
SCCF RECON,ioos:station:SCCF:12:1,2008-01-05T08:00:00Z,26.4966,-82.1479,2.5,12.96,2 
SCCF RECON,ioos:station:SCCF:12:1,2008-01-05T09:00:00Z,26.4966,-82.1479,2.5,12.85,2 
SCCF RECON,ioos:station:SCCF:12:1,2008-01-05T10:00:00Z,26.4966,-82.1479,2.5,12.74,2 
SCCF RECON,ioos:station:SCCF:12:1,2008-01-05T11:00:00Z,26.4966,-82.1479,2.5,12.84,2 
SCCF RECON,ioos:station:SCCF:12:1,2008-01-05T12:00:00Z,26.4966,-82.1479,2.5,12.7,2 
SCCF RECON,ioos:station:SCCF:12:1,2008-01-05T13:00:00Z,26.4966,-82.1479,2.5,12.6,2 
SCCF RECON,ioos:station:SCCF:12:1,2008-01-05T14:00:00Z,26.4966,-82.1479,2.5,12.69,2 
SCCF RECON,ioos:station:SCCF:12:1,2008-01-05T15:00:00Z,26.4966,-82.1479,2.5,12.73,2 
SCCF RECON,ioos:station:SCCF:12:1,2008-01-05T16:00:00Z,26.4966,-82.1479,2.5,12.85,2 
SCCF RECON,ioos:station:SCCF:12:1,2008-01-05T17:00:00Z,26.4966,-82.1479,2.5,12.99,2 
SCCF RECON,ioos:station:SCCF:12:1,2008-01-05T18:00:00Z,26.4966,-82.1479,2.5,13.02,2 
SCCF RECON,ioos:station:SCCF:12:1,2008-01-05T19:00:00Z,26.4966,-82.1479,2.5,13.23,2 
SCCF RECON,ioos:station:SCCF:12:1,2008-01-05T20:00:00Z,26.4966,-82.1479,2.5,13.34,2 
SCCF RECON,ioos:station:SCCF:12:1,2008-01-05T21:00:00Z,26.4966,-82.1479,2.5,13.35,2 
SCCF RECON,ioos:station:SCCF:12:1,2008-01-05T22:00:00Z,26.4966,-82.1479,2.5,13.42,2 
SCCF RECON,ioos:station:SCCF:12:1,2008-01-05T23:00:00Z,26.4966,-82.1479,2.5,13.39,2 
SCCF RECON,ioos:station:SCCF:12:1,2008-01-06T00:00:00Z,26.4966,-82.1479,2.5,13.38,2 
SCCF RECON,ioos:station:SCCF:12:1,2008-01-06T01:00:00Z,26.4966,-82.1479,2.5,13.39,2 
SCCF RECON,ioos:station:SCCF:12:1,2008-01-06T02:00:00Z,26.4966,-82.1479,2.5,13.32,2 
SCCF RECON,ioos:station:SCCF:12:1,2008-01-06T03:00:00Z,26.4966,-82.1479,2.5,13.29,2 
SCCF RECON,ioos:station:SCCF:12:1,2008-01-06T04:00:00Z,26.4966,-82.1479,2.5,13.32,2 
SCCF RECON,ioos:station:SCCF:12:1,2008-01-06T05:00:00Z,26.4966,-82.1479,2.5,13.34,2 
SCCF RECON,ioos:station:SCCF:12:1,2008-01-06T06:00:00Z,26.4966,-82.1479,2.5,13.41,2 
SCCF RECON,ioos:station:SCCF:12:1,2008-01-06T07:00:00Z,26.4966,-82.1479,2.5,13.4,2 
SCCF RECON,ioos:station:SCCF:12:1,2008-01-06T08:00:00Z,26.4966,-82.1479,2.5,13.35,2 
SCCF RECON,ioos:station:SCCF:12:1,2008-01-06T09:00:00Z,26.4966,-82.1479,2.5,13.43,2 
SCCF RECON,ioos:station:SCCF:12:1,2008-01-06T10:00:00Z,26.4966,-82.1479,2.5,13.5,2 
SCCF RECON,ioos:station:SCCF:12:1,2008-01-06T11:00:00Z,26.4966,-82.1479,2.5,13.55,2 
SCCF RECON,ioos:station:SCCF:12:1,2008-01-06T12:00:00Z,26.4966,-82.1479,2.5,13.54,2 
SCCF RECON,ioos:station:SCCF:12:1,2008-01-06T13:00:00Z,26.4966,-82.1479,2.5,13.51,2 
SCCF RECON,ioos:station:SCCF:12:1,2008-01-06T16:00:00Z,26.4966,-82.1479,2.5,13.86,2 
SCCF RECON,ioos:station:SCCF:12:1,2008-01-06T17:00:00Z,26.4966,-82.1479,2.5,13.81,2 
SCCF RECON,ioos:station:SCCF:12:1,2008-01-06T18:00:00Z,26.4966,-82.1479,2.5,13.92,2 
SCCF RECON,ioos:station:SCCF:12:1,2008-01-06T19:00:00Z,26.4966,-82.1479,2.5,14.03,2 
SCCF RECON,ioos:station:SCCF:12:1,2008-01-06T20:00:00Z,26.4966,-82.1479,2.5,14.11,2 
SCCF RECON,ioos:station:SCCF:12:1,2008-01-06T21:00:00Z,26.4966,-82.1479,2.5,14.28,2 
SCCF RECON,ioos:station:SCCF:12:1,2008-01-06T22:00:00Z,26.4966,-82.1479,2.5,14.65,2 
SCCF RECON,ioos:station:SCCF:12:1,2008-01-06T23:00:00Z,26.4966,-82.1479,2.5,14.46,2 
SCCF RECON,ioos:station:SCCF:12:1,2008-01-07T00:00:00Z,26.4966,-82.1479,2.5,14.58,2 
SCCF RECON,ioos:station:SCCF:12:1,2008-01-07T01:00:00Z,26.4966,-82.1479,2.5,14.32,2 
SCCF RECON,ioos:station:SCCF:12:1,2008-01-07T02:00:00Z,26.4966,-82.1479,2.5,14.27,2 
SCCF RECON,ioos:station:SCCF:12:1,2008-01-07T03:00:00Z,26.4966,-82.1479,2.5,14.17,2 
SCCF RECON,ioos:station:SCCF:12:1,2008-01-07T04:00:00Z,26.4966,-82.1479,2.5,14.25,2 
SCCF RECON,ioos:station:SCCF:12:1,2008-01-07T06:00:00Z,26.4966,-82.1479,2.5,14.37,2 
SCCF RECON,ioos:station:SCCF:12:1,2008-01-07T07:00:00Z,26.4966,-82.1479,2.5,14.39,2 
SCCF RECON,ioos:station:SCCF:12:1,2008-01-07T08:00:00Z,26.4966,-82.1479,2.5,14.35,2 
SCCF RECON,ioos:station:SCCF:12:1,2008-01-07T09:00:00Z,26.4966,-82.1479,2.5,14.33,2 
SCCF RECON,ioos:station:SCCF:12:1,2008-01-07T10:00:00Z,26.4966,-82.1479,2.5,14.33,2 
SCCF RECON,ioos:station:SCCF:12:1,2008-01-07T11:00:00Z,26.4966,-82.1479,2.5,14.35,2 
SCCF RECON,ioos:station:SCCF:12:1,2008-01-07T12:00:00Z,26.4966,-82.1479,2.5,14.39,2 
SCCF RECON,ioos:station:SCCF:12:1,2008-01-07T13:00:00Z,26.4966,-82.1479,2.5,14.37,2 
SCCF RECON,ioos:station:SCCF:12:1,2008-01-07T14:00:00Z,26.4966,-82.1479,2.5,14.35,2 
SCCF RECON,ioos:station:SCCF:12:1,2008-01-07T15:00:00Z,26.4966,-82.1479,2.5,14.53,2 
SCCF RECON,ioos:station:SCCF:12:1,2008-01-07T16:00:00Z,26.4966,-82.1479,2.5,14.67,2 
SCCF RECON,ioos:station:SCCF:12:1,2008-01-07T17:00:00Z,26.4966,-82.1479,2.5,14.7,2 
SCCF RECON,ioos:station:SCCF:12:1,2008-01-07T18:00:00Z,26.4966,-82.1479,2.5,14.8,2 
SCCF RECON,ioos:station:SCCF:12:1,2008-01-07T20:00:00Z,26.4966,-82.1479,2.5,15.22,2 
SCCF RECON,ioos:station:SCCF:12:1,2008-01-07T21:00:00Z,26.4966,-82.1479,2.5,15.34,2 
SCCF RECON,ioos:station:SCCF:12:1,2008-01-07T22:00:00Z,26.4966,-82.1479,2.5,15.36,2 
SCCF RECON,ioos:station:SCCF:12:1,2008-01-07T23:00:00Z,26.4966,-82.1479,2.5,15.44,2 
SCCF RECON,ioos:station:SCCF:12:1,2008-01-08T00:00:00Z,26.4966,-82.1479,2.5,15.5,2 
SCCF RECON,ioos:station:SCCF:12:1,2008-01-08T01:00:00Z,26.4966,-82.1479,2.5,15.53,2 
SCCF RECON,ioos:station:SCCF:12:1,2008-01-08T02:00:00Z,26.4966,-82.1479,2.5,15.43,2 
SCCF RECON,ioos:station:SCCF:12:1,2008-01-08T03:00:00Z,26.4966,-82.1479,2.5,15.41,2 
SCCF RECON,ioos:station:SCCF:12:1,2008-01-08T04:00:00Z,26.4966,-82.1479,2.5,15.36,2 
SCCF RECON,ioos:station:SCCF:12:1,2008-01-08T05:00:00Z,26.4966,-82.1479,2.5,15.4,2 
SCCF RECON,ioos:station:SCCF:12:1,2008-01-08T07:00:00Z,26.4966,-82.1479,2.5,15.48,2 
SCCF RECON,ioos:station:SCCF:12:1,2008-01-08T08:00:00Z,26.4966,-82.1479,2.5,15.46,2 
SCCF RECON,ioos:station:SCCF:12:1,2008-01-08T09:00:00Z,26.4966,-82.1479,2.5,15.46,2 
SCCF RECON,ioos:station:SCCF:12:1,2008-01-08T10:00:00Z,26.4966,-82.1479,2.5,15.56,2 
SCCF RECON,ioos:station:SCCF:12:1,2008-01-08T11:00:00Z,26.4966,-82.1479,2.5,15.66,2 
SCCF RECON,ioos:station:SCCF:12:1,2008-01-08T12:00:00Z,26.4966,-82.1479,2.5,15.69,2 
SCCF RECON,ioos:station:SCCF:12:1,2008-01-08T13:00:00Z,26.4966,-82.1479,2.5,15.54,2 
SCCF RECON,ioos:station:SCCF:12:1,2008-01-08T14:00:00Z,26.4966,-82.1479,2.5,15.35,2 
SCCF RECON,ioos:station:SCCF:12:1,2008-01-08T15:00:00Z,26.4966,-82.1479,2.5,15.6,2 
SCCF RECON,ioos:station:SCCF:12:1,2008-01-08T16:00:00Z,26.4966,-82.1479,2.5,15.88,2 
SCCF RECON,ioos:station:SCCF:12:1,2008-01-08T17:00:00Z,26.4966,-82.1479,2.5,15.96,2 
SCCF RECON,ioos:station:SCCF:12:1,2008-01-08T18:00:00Z,26.4966,-82.1479,2.5,16.11,2 
SCCF RECON,ioos:station:SCCF:12:1,2008-01-08T19:00:00Z,26.4966,-82.1479,2.5,16.31,2 
SCCF RECON,ioos:station:SCCF:12:1,2008-01-08T20:00:00Z,26.4966,-82.1479,2.5,16.43,2 
SCCF RECON,ioos:station:SCCF:12:1,2008-01-08T21:00:00Z,26.4966,-82.1479,2.5,16.46,2 
SCCF RECON,ioos:station:SCCF:12:1,2008-01-08T22:00:00Z,26.4966,-82.1479,2.5,16.66,2 
SCCF RECON,ioos:station:SCCF:12:1,2008-01-08T23:00:00Z,26.4966,-82.1479,2.5,16.71,2 
SCCF RECON,ioos:station:SCCF:12:1,2008-01-09T00:00:00Z,26.4966,-82.1479,2.5,16.65,2 
SCCF RECON,ioos:station:SCCF:12:1,2008-01-09T01:00:00Z,26.4966,-82.1479,2.5,16.75,2 
SCCF RECON,ioos:station:SCCF:12:1,2008-01-09T02:00:00Z,26.4966,-82.1479,2.5,16.48,2 
SCCF RECON,ioos:station:SCCF:12:1,2008-01-09T03:00:00Z,26.4966,-82.1479,2.5,16.53,2 
SCCF RECON,ioos:station:SCCF:12:1,2008-01-09T04:00:00Z,26.4966,-82.1479,2.5,16.53,2 
SCCF RECON,ioos:station:SCCF:12:1,2008-01-09T05:00:00Z,26.4966,-82.1479,2.5,16.49,2 
SCCF RECON,ioos:station:SCCF:12:1,2008-01-09T06:00:00Z,26.4966,-82.1479,2.5,16.44,2 
SCCF RECON,ioos:station:SCCF:12:1,2008-01-09T07:00:00Z,26.4966,-82.1479,2.5,16.48,2 
SCCF RECON,ioos:station:SCCF:12:1,2008-01-09T08:00:00Z,26.4966,-82.1479,2.5,16.5,2 
SCCF RECON,ioos:station:SCCF:12:1,2008-01-09T09:00:00Z,26.4966,-82.1479,2.5,16.44,2 
SCCF RECON,ioos:station:SCCF:12:1,2008-01-09T10:00:00Z,26.4966,-82.1479,2.5,16.49,2 
SCCF RECON,ioos:station:SCCF:12:1,2008-01-09T11:00:00Z,26.4966,-82.1479,2.5,16.46,2 
SCCF RECON,ioos:station:SCCF:12:1,2008-01-09T12:00:00Z,26.4966,-82.1479,2.5,16.48,2 
SCCF RECON,ioos:station:SCCF:12:1,2008-01-09T13:00:00Z,26.4966,-82.1479,2.5,16.5,2 
SCCF RECON,ioos:station:SCCF:12:1,2008-01-09T14:00:00Z,26.4966,-82.1479,2.5,16.49,2 
SCCF RECON,ioos:station:SCCF:12:1,2008-01-09T15:00:00Z,26.4966,-82.1479,2.5,16.54,2 
SCCF RECON,ioos:station:SCCF:12:1,2008-01-09T16:00:00Z,26.4966,-82.1479,2.5,16.71,2 
SCCF RECON,ioos:station:SCCF:12:1,2008-01-09T17:00:00Z,26.4966,-82.1479,2.5,17.16,2 
SCCF RECON,ioos:station:SCCF:12:1,2008-01-09T18:00:00Z,26.4966,-82.1479,2.5,16.81,2 
SCCF RECON,ioos:station:SCCF:12:1,2008-01-09T19:00:00Z,26.4966,-82.1479,2.5,17.01,2 
SCCF RECON,ioos:station:SCCF:12:1,2008-01-09T20:00:00Z,26.4966,-82.1479,2.5,17.29,2 
SCCF RECON,ioos:station:SCCF:12:1,2008-01-09T21:00:00Z,26.4966,-82.1479,2.5,17.21,2 
SCCF RECON,ioos:station:SCCF:12:1,2008-01-09T22:00:00Z,26.4966,-82.1479,2.5,17.21,2 
SCCF RECON,ioos:station:SCCF:12:1,2008-01-09T23:00:00Z,26.4966,-82.1479,2.5,17.2,2 
SCCF RECON,ioos:station:SCCF:12:1,2008-01-10T00:00:00Z,26.4966,-82.1479,2.5,17.22,2 
SCCF RECON,ioos:station:SCCF:12:1,2008-01-10T01:00:00Z,26.4966,-82.1479,2.5,17.27,2 
SCCF RECON,ioos:station:SCCF:12:1,2008-01-10T02:00:00Z,26.4966,-82.1479,2.5,17.38,2 
SCCF RECON,ioos:station:SCCF:12:1,2008-01-10T03:00:00Z,26.4966,-82.1479,2.5,17.44,2 
SCCF RECON,ioos:station:SCCF:12:1,2008-01-10T04:00:00Z,26.4966,-82.1479,2.5,17.43,2 
SCCF RECON,ioos:station:SCCF:12:1,2008-01-10T05:00:00Z,26.4966,-82.1479,2.5,17.39,2 
SCCF RECON,ioos:station:SCCF:12:1,2008-01-10T06:00:00Z,26.4966,-82.1479,2.5,17.39,2 
SCCF RECON,ioos:station:SCCF:12:1,2008-01-10T08:00:00Z,26.4966,-82.1479,2.5,17.37,2 
SCCF RECON,ioos:station:SCCF:12:1,2008-01-10T09:00:00Z,26.4966,-82.1479,2.5,17.39,2 
SCCF RECON,ioos:station:SCCF:12:1,2008-01-10T10:00:00Z,26.4966,-82.1479,2.5,17.41,2 
SCCF RECON,ioos:station:SCCF:12:1,2008-01-10T11:00:00Z,26.4966,-82.1479,2.5,17.41,2 
SCCF RECON,ioos:station:SCCF:12:1,2008-01-10T12:00:00Z,26.4966,-82.1479,2.5,17.41,2 
SCCF RECON,ioos:station:SCCF:12:1,2008-01-10T13:00:00Z,26.4966,-82.1479,2.5,17.44,2 
SCCF RECON,ioos:station:SCCF:12:1,2008-01-10T14:00:00Z,26.4966,-82.1479,2.5,17.46,2 
SCCF RECON,ioos:station:SCCF:12:1,2008-01-10T15:00:00Z,26.4966,-82.1479,2.5,17.44,2 
SCCF RECON,ioos:station:SCCF:12:1,2008-01-10T16:00:00Z,26.4966,-82.1479,2.5,17.64,2 
SCCF RECON,ioos:station:SCCF:12:1,2008-01-10T17:00:00Z,26.4966,-82.1479,2.5,17.88,2 
SCCF RECON,ioos:station:SCCF:12:1,2008-01-10T18:00:00Z,26.4966,-82.1479,2.5,17.86,2 
SCCF RECON,ioos:station:SCCF:12:1,2008-01-10T19:00:00Z,26.4966,-82.1479,2.5,17.97,2 
SCCF RECON,ioos:station:SCCF:12:1,2008-01-10T20:00:00Z,26.4966,-82.1479,2.5,18.35,2 
SCCF RECON,ioos:station:SCCF:12:1,2008-01-10T21:00:00Z,26.4966,-82.1479,2.5,18.33,2 
SCCF RECON,ioos:station:SCCF:12:1,2008-01-10T22:00:00Z,26.4966,-82.1479,2.5,18.6,2 
SCCF RECON,ioos:station:SCCF:12:1,2008-01-10T23:00:00Z,26.4966,-82.1479,2.5,18.64,2 
SCCF RECON,ioos:station:SCCF:12:1,2008-01-11T00:00:00Z,26.4966,-82.1479,2.5,18.57,2 
SCCF RECON,ioos:station:SCCF:12:1,2008-01-11T01:00:00Z,26.4966,-82.1479,2.5,18.45,2 
SCCF RECON,ioos:station:SCCF:12:1,2008-01-11T02:00:00Z,26.4966,-82.1479,2.5,18.44,2 
SCCF RECON,ioos:station:SCCF:12:1,2008-01-11T03:00:00Z,26.4966,-82.1479,2.5,18.46,2 
SCCF RECON,ioos:station:SCCF:12:1,2008-01-11T04:00:00Z,26.4966,-82.1479,2.5,18.47,2 
SCCF RECON,ioos:station:SCCF:12:1,2008-01-11T05:00:00Z,26.4966,-82.1479,2.5,18.41,2 
SCCF RECON,ioos:station:SCCF:12:1,2008-01-11T06:00:00Z,26.4966,-82.1479,2.5,18.4,2 
SCCF RECON,ioos:station:SCCF:12:1,2008-01-11T07:00:00Z,26.4966,-82.1479,2.5,18.32,2 
SCCF RECON,ioos:station:SCCF:12:1,2008-01-11T10:00:00Z,26.4966,-82.1479,2.5,18.7,2 
SCCF RECON,ioos:station:SCCF:12:1,2008-01-11T11:00:00Z,26.4966,-82.1479,2.5,18.69,2 
SCCF RECON,ioos:station:SCCF:12:1,2008-01-11T12:00:00Z,26.4966,-82.1479,2.5,18.79,2 
SCCF RECON,ioos:station:SCCF:12:1,2008-01-11T13:00:00Z,26.4966,-82.1479,2.5,18.63,2 
SCCF RECON,ioos:station:SCCF:12:1,2008-01-11T14:00:00Z,26.4966,-82.1479,2.5,18.52,2 
SCCF RECON,ioos:station:SCCF:12:1,2008-01-11T15:00:00Z,26.4966,-82.1479,2.5,18.5,2 
SCCF RECON,ioos:station:SCCF:12:1,2008-01-11T16:00:00Z,26.4966,-82.1479,2.5,18.58,2 
SCCF RECON,ioos:station:SCCF:12:1,2008-01-11T17:00:00Z,26.4966,-82.1479,2.5,18.7,2 
SCCF RECON,ioos:station:SCCF:12:1,2008-01-11T18:00:00Z,26.4966,-82.1479,2.5,18.83,2 
SCCF RECON,ioos:station:SCCF:12:1,2008-01-11T19:00:00Z,26.4966,-82.1479,2.5,18.99,2 
SCCF RECON,ioos:station:SCCF:12:1,2008-01-11T20:00:00Z,26.4966,-82.1479,2.5,19.24,2 
SCCF RECON,ioos:station:SCCF:12:1,2008-01-11T21:00:00Z,26.4966,-82.1479,2.5,19.14,2 
SCCF RECON,ioos:station:SCCF:12:1,2008-01-11T22:00:00Z,26.4966,-82.1479,2.5,19.04,2 
SCCF RECON,ioos:station:SCCF:12:1,2008-01-11T23:00:00Z,26.4966,-82.1479,2.5,19.08,2 
SCCF RECON,ioos:station:SCCF:12:1,2008-01-12T00:00:00Z,26.4966,-82.1479,2.5,19.09,2 
SCCF RECON,ioos:station:SCCF:12:1,2008-01-12T01:00:00Z,26.4966,-82.1479,2.5,19.02,2 
SCCF RECON,ioos:station:SCCF:12:1,2008-01-12T02:00:00Z,26.4966,-82.1479,2.5,19.0,2 
SCCF RECON,ioos:station:SCCF:12:1,2008-01-12T03:00:00Z,26.4966,-82.1479,2.5,18.97,2 
SCCF RECON,ioos:station:SCCF:12:1,2008-01-12T04:00:00Z,26.4966,-82.1479,2.5,18.96,2 
SCCF RECON,ioos:station:SCCF:12:1,2008-01-12T05:00:00Z,26.4966,-82.1479,2.5,19.0,2 
SCCF RECON,ioos:station:SCCF:12:1,2008-01-12T06:00:00Z,26.4966,-82.1479,2.5,19.0,2 
SCCF RECON,ioos:station:SCCF:12:1,2008-01-12T07:00:00Z,26.4966,-82.1479,2.5,18.98,2 
SCCF RECON,ioos:station:SCCF:12:1,2008-01-12T09:00:00Z,26.4966,-82.1479,2.5,18.89,2 
SCCF RECON,ioos:station:SCCF:12:1,2008-01-12T10:00:00Z,26.4966,-82.1479,2.5,19.35,2 
SCCF RECON,ioos:station:SCCF:12:1,2008-01-12T11:00:00Z,26.4966,-82.1479,2.5,19.29,2 
SCCF RECON,ioos:station:SCCF:12:1,2008-01-12T12:00:00Z,26.4966,-82.1479,2.5,19.28,2 
SCCF RECON,ioos:station:SCCF:12:1,2008-01-12T13:00:00Z,26.4966,-82.1479,2.5,19.36,2 
SCCF RECON,ioos:station:SCCF:12:1,2008-01-12T14:00:00Z,26.4966,-82.1479,2.5,19.26,2 
SCCF RECON,ioos:station:SCCF:12:1,2008-01-12T15:00:00Z,26.4966,-82.1479,2.5,19.29,2 
SCCF RECON,ioos:station:SCCF:12:1,2008-01-12T16:00:00Z,26.4966,-82.1479,2.5,19.29,2 
SCCF RECON,ioos:station:SCCF:12:1,2008-01-12T17:00:00Z,26.4966,-82.1479,2.5,19.2,2 
SCCF RECON,ioos:station:SCCF:12:1,2008-01-12T18:00:00Z,26.4966,-82.1479,2.5,19.54,2 
SCCF RECON,ioos:station:SCCF:12:1,2008-01-12T19:00:00Z,26.4966,-82.1479,2.5,19.84,2 
SCCF RECON,ioos:station:SCCF:12:1,2008-01-12T20:00:00Z,26.4966,-82.1479,2.5,19.91,2 
SCCF RECON,ioos:station:SCCF:12:1,2008-01-12T21:00:00Z,26.4966,-82.1479,2.5,20.03,2 
SCCF RECON,ioos:station:SCCF:12:1,2008-01-12T22:00:00Z,26.4966,-82.1479,2.5,19.79,2 
SCCF RECON,ioos:station:SCCF:12:1,2008-01-12T23:00:00Z,26.4966,-82.1479,2.5,19.85,2 
SCCF RECON,ioos:station:SCCF:12:1,2008-01-13T00:00:00Z,26.4966,-82.1479,2.5,19.91,2 
SCCF RECON,ioos:station:SCCF:12:1,2008-01-13T01:00:00Z,26.4966,-82.1479,2.5,19.85,2 
SCCF RECON,ioos:station:SCCF:12:1,2008-01-13T02:00:00Z,26.4966,-82.1479,2.5,20.02,2 
SCCF RECON,ioos:station:SCCF:12:1,2008-01-13T03:00:00Z,26.4966,-82.1479,2.5,20.01,2 
SCCF RECON,ioos:station:SCCF:12:1,2008-01-13T04:00:00Z,26.4966,-82.1479,2.5,19.92,2 
SCCF RECON,ioos:station:SCCF:12:1,2008-01-13T05:00:00Z,26.4966,-82.1479,2.5,19.79,2 
SCCF RECON,ioos:station:SCCF:12:1,2008-01-13T06:00:00Z,26.4966,-82.1479,2.5,19.75,2 
SCCF RECON,ioos:station:SCCF:12:1,2008-01-13T07:00:00Z,26.4966,-82.1479,2.5,19.7,2 
SCCF RECON,ioos:station:SCCF:12:1,2008-01-13T08:00:00Z,26.4966,-82.1479,2.5,19.65,2 
SCCF RECON,ioos:station:SCCF:12:1,2008-01-13T09:00:00Z,26.4966,-82.1479,2.5,19.66,2 
SCCF RECON,ioos:station:SCCF:12:1,2008-01-13T10:00:00Z,26.4966,-82.1479,2.5,19.73,2 
SCCF RECON,ioos:station:SCCF:12:1,2008-01-13T12:00:00Z,26.4966,-82.1479,2.5,19.81,2 